Precipitable_Water
0.43 0.45 0.48 0.51 0.57 0.83 1.04 1.19 1.21 1.26 1.26 1.04 0.95 0.90 0.87 0.81 0.76 0.67 0.53 0.62 0.72 0.77 0.76 0.72 0.67 0.61 0.58 0.51 0.53 0.51 0.37 0.32 0.34 0.35 0.37 0.40 0.41 0.46 0.51 0.51 0.55 0.63 0.73 0.90 1.01
0.47 0.43 0.43 0.46 0.47 0.51 0.76 1.01 1.14 1.21 1.25 1.29 1.09 0.97 0.93 0.89 0.68 0.52 0.64 0.68 0.72 0.75 0.66 0.61 0.57 0.61 0.52 0.49 0.48 0.42 0.32 0.33 0.40 0.41 0.39 0.41 0.43 0.47 0.43 0.42 0.51 0.63 0.80 0.84 1.01
0.53 0.49 0.43 0.41 0.44 0.48 0.49 0.71 0.97 1.11 1.21 1.24 1.30 1.16 0.98 0.95 0.57 0.40 0.60 0.62 0.65 0.71 0.69 0.69 0.64 0.60 0.52 0.52 0.46 0.43 0.33 0.39 0.44 0.45 0.42 0.41 0.43 0.51 0.50 0.42 0.46 0.53 0.75 0.81 0.97
0.56 0.54 0.50 0.47 0.44 0.45 0.48 0.50 0.66 0.95 1.10 1.18 1.22 1.29 1.21 0.92 0.33 0.65 0.65 0.62 0.64 0.66 0.64 0.63 0.59 0.53 0.48 0.46 0.50 0.40 0.43 0.42 0.44 0.48 0.44 0.39 0.45 0.43 0.46 0.50 0.53 0.61 0.78 0.88 0.85
0.57 0.58 0.56 0.52 0.50 0.46 0.46 0.50 0.52 0.68 0.93 1.12 1.16 1.20 1.17 0.95 0.53 0.76 0.71 0.69 0.66 0.63 0.55 0.54 0.52 0.51 0.45 0.48 0.50 0.44 0.44 0.45 0.46 0.45 0.45 0.47 0.44 0.43 0.45 0.52 0.58 0.61 0.62 0.76 0.89
0.56 0.60 0.62 0.59 0.56 0.54 0.48 0.48 0.51 0.54 0.71 0.94 1.11 1.15 0.97 0.76 1.14 0.80 0.73 0.74 0.70 0.65 0.56 0.57 0.53 0.55 0.50 0.49 0.47 0.51 0.48 0.47 0.46 0.46 0.46 0.42 0.44 0.47 0.43 0.51 0.50 0.56 0.57 0.59 0.80
0.52 0.55 0.57 0.62 0.62 0.60 0.58 0.50 0.48 0.53 0.56 0.76 0.95 1.03 0.86 0.79 1.20 1.03 0.87 0.67 0.79 0.69 0.60 0.65 0.62 0.54 0.52 0.47 0.53 0.52 0.46 0.46 0.45 0.46 0.45 0.48 0.40 0.42 0.45 0.50 0.47 0.49 0.55 0.58 0.67
0.47 0.49 0.54 0.56 0.58 0.60 0.60 0.58 0.52 0.50 0.53 0.59 0.82 0.86 0.70 0.97 1.10 1.11 1.04 0.72 0.68 0.75 0.71 0.70 0.69 0.59 0.55 0.56 0.54 0.47 0.47 0.36 0.43 0.47 0.46 0.45 0.33 0.43 0.47 0.49 0.46 0.47 0.52 0.55 0.59
0.45 0.45 0.46 0.49 0.53 0.58 0.59 0.60 0.58 0.49 0.53 0.59 0.57 0.70 0.62 0.96 0.91 1.05 1.13 0.94 0.68 0.68 0.76 0.76 0.68 0.54 0.55 0.47 0.45 0.46 0.33 0.35 0.37 0.46 0.45 0.43 0.34 0.40 0.46 0.47 0.46 0.46 0.48 0.53 0.56
0.42 0.44 0.44 0.44 0.47 0.50 0.54 0.56 0.56 0.54 0.56 0.61 0.58 0.43 0.61 0.70 0.88 1.04 1.19 1.16 0.90 0.67 0.62 0.65 0.58 0.49 0.47 0.42 0.27 0.34 0.39 0.39 0.36 0.41 0.44 0.41 0.36 0.42 0.43 0.42 0.44 0.47 0.48 0.49 0.54
0.39 0.43 0.45 0.44 0.43 0.45 0.47 0.47 0.40 0.43 0.55 0.38 0.37 0.37 0.41 0.75 1.00 0.94 1.07 1.10 1.01 0.79 0.47 0.52 0.50 0.39 0.35 0.37 0.36 0.35 0.38 0.37 0.38 0.42 0.44 0.40 0.36 0.39 0.40 0.42 0.44 0.46 0.46 0.49 0.50
0.37 0.41 0.44 0.43 0.41 0.42 0.44 0.40 0.47 0.52 0.32 0.40 0.39 0.36 0.46 0.58 0.60 0.81 1.02 0.85 0.81 0.66 0.61 0.51 0.45 0.41 0.40 0.41 0.39 0.36 0.33 0.32 0.39 0.48 0.47 0.46 0.37 0.39 0.40 0.41 0.46 0.48 0.47 0.49 0.51
0.36 0.38 0.40 0.40 0.39 0.41 0.47 0.50 0.65 0.59 0.35 0.27 0.30 0.31 0.36 0.48 0.46 0.57 0.83 0.81 0.73 0.65 0.66 0.50 0.44 0.41 0.45 0.37 0.37 0.38 0.35 0.31 0.34 0.45 0.47 0.46 0.39 0.37 0.39 0.40 0.46 0.48 0.51 0.53 0.53
0.34 0.35 0.38 0.37 0.34 0.46 0.40 0.57 0.57 0.59 0.25 0.21 0.27 0.35 0.35 0.46 0.38 0.55 0.78 0.78 0.70 0.63 0.66 0.60 0.54 0.54 0.47 0.41 0.43 0.35 0.41 0.41 0.37 0.38 0.34 0.48 0.27 0.35 0.34 0.35 0.40 0.42 0.47 0.50 0.53
0.35 0.34 0.35 0.37 0.31 0.35 0.46 0.50 0.59 0.50 0.12 0.22 0.24 0.41 0.42 0.35 0.34 0.42 0.59 0.75 0.61 0.62 0.65 0.56 0.58 0.52 0.51 0.45 0.47 0.39 0.50 0.47 0.48 0.42 0.38 0.39 0.35 0.31 0.40 0.34 0.34 0.39 0.42 0.49 0.54
0.41 0.38 0.35 0.31 0.39 0.40 0.52 0.55 0.54 0.24 0.12 0.19 0.24 0.29 0.35 0.36 0.37 0.43 0.53 0.74 0.73 0.61 0.64 0.61 0.76 0.66 0.55 0.58 0.54 0.49 0.48 0.50 0.50 0.46 0.35 0.34 0.33 0.25 0.32 0.30 0.33 0.36 0.38 0.41 0.44
0.40 0.39 0.36 0.31 0.24 0.41 0.50 0.47 0.22 0.14 0.24 0.17 0.22 0.32 0.32 0.35 0.36 0.39 0.37 0.46 0.47 0.41 0.44 0.56 0.59 0.72 0.74 0.58 0.55 0.50 0.45 0.38 0.36 0.35 0.31 0.30 0.37 0.25 0.33 0.33 0.33 0.35 0.39 0.43 0.47
0.36 0.33 0.38 0.38 0.40 0.41 0.43 0.29 0.15 0.17 0.22 0.26 0.21 0.21 0.19 0.28 0.40 0.42 0.33 0.34 0.51 0.51 0.45 0.41 0.40 0.60 0.73 0.66 0.51 0.47 0.49 0.40 0.27 0.28 0.25 0.39 0.34 0.21 0.36 0.39 0.43 0.45 0.47 0.49 0.51
0.34 0.34 0.34 0.38 0.45 0.45 0.31 0.16 0.13 0.17 0.31 0.26 0.21 0.19 0.16 0.24 0.34 0.37 0.37 0.32 0.44 0.53 0.39 0.39 0.41 0.64 0.69 0.73 0.71 0.54 0.44 0.49 0.43 0.42 0.36 0.37 0.39 0.34 0.44 0.42 0.43 0.48 0.50 0.50 0.52
0.37 0.27 0.33 0.46 0.54 0.43 0.24 0.15 0.17 0.23 0.26 0.27 0.20 0.21 0.21 0.22 0.24 0.25 0.30 0.41 0.42 0.49 0.52 0.48 0.36 0.56 0.63 0.72 0.74 0.67 0.65 0.48 0.48 0.35 0.33 0.33 0.31 0.25 0.40 0.42 0.46 0.49 0.50 0.50 0.53
0.37 0.27 0.36 0.51 0.54 0.35 0.19 0.18 0.23 0.25 0.24 0.21 0.21 0.21 0.20 0.20 0.24 0.25 0.26 0.34 0.41 0.43 0.48 0.47 0.45 0.46 0.56 0.54 0.53 0.57 0.55 0.57 0.55 0.50 0.35 0.26 0.28 0.39 0.44 0.48 0.49 0.52 0.52 0.52 0.53
0.36 0.23 0.43 0.44 0.27 0.29 0.22 0.26 0.32 0.29 0.29 0.26 0.27 0.25 0.21 0.21 0.20 0.19 0.21 0.27 0.40 0.39 0.36 0.44 0.40 0.36 0.46 0.58 0.66 0.63 0.56 0.56 0.44 0.41 0.44 0.40 0.36 0.49 0.50 0.53 0.54 0.54 0.54 0.55 0.56
0.30 0.29 0.35 0.38 0.18 0.19 0.22 0.25 0.30 0.30 0.31 0.28 0.25 0.27 0.27 0.22 0.19 0.22 0.24 0.29 0.34 0.37 0.37 0.40 0.34 0.28 0.34 0.47 0.59 0.52 0.55 0.53 0.56 0.56 0.44 0.41 0.33 0.54 0.55 0.54 0.54 0.53 0.55 0.59 0.57
0.30 0.23 0.28 0.31 0.27 0.22 0.19 0.20 0.21 0.34 0.31 0.30 0.28 0.30 0.26 0.23 0.23 0.22 0.25 0.32 0.36 0.36 0.40 0.41 0.33 0.30 0.28 0.34 0.41 0.39 0.43 0.47 0.47 0.42 0.44 0.45 0.37 0.48 0.50 0.52 0.54 0.57 0.58 0.57 0.54
0.33 0.25 0.27 0.20 0.21 0.21 0.21 0.21 0.18 0.20 0.25 0.31 0.28 0.28 0.25 0.23 0.22 0.21 0.25 0.28 0.32 0.34 0.32 0.35 0.26 0.31 0.35 0.37 0.37 0.38 0.38 0.41 0.41 0.43 0.38 0.39 0.42 0.52 0.54 0.58 0.56 0.61 0.57 0.56 0.57
0.31 0.25 0.27 0.25 0.23 0.20 0.18 0.16 0.16 0.18 0.26 0.24 0.25 0.29 0.29 0.26 0.25 0.22 0.25 0.26 0.26 0.30 0.32 0.34 0.27 0.31 0.28 0.32 0.33 0.32 0.35 0.36 0.37 0.42 0.43 0.40 0.40 0.58 0.63 0.65 0.63 0.61 0.61 0.60 0.58
0.38 0.35 0.32 0.23 0.21 0.18 0.17 0.17 0.17 0.19 0.28 0.28 0.25 0.27 0.29 0.33 0.36 0.35 0.34 0.32 0.29 0.26 0.28 0.30 0.28 0.24 0.21 0.25 0.27 0.24 0.28 0.32 0.35 0.37 0.39 0.36 0.41 0.53 0.55 0.58 0.61 0.67 0.69 0.67 0.66
Wind_Speed
32 33 36 40 43 45 44 43 42 42 43 42 41 41 41 40 41 41 41 36 31 33 29 27 26 25 25 25 24 20 21 21 21 18 15 12 16 14 13 15 15 17 14 10 16
32 33 35 37 41 45 47 46 44 43 43 44 43 42 41 42 43 47 43 42 38 34 33 31 29 27 27 26 25 25 22 22 17 16 17 15 17 15 16 18 17 17 15 14 16
32 33 34 35 37 41 45 48 47 45 44 43 44 43 42 42 44 49 46 45 44 40 37 34 32 31 31 29 29 27 28 22 20 18 17 17 17 17 16 18 18 19 19 19 18
33 33 34 34 35 37 40 45 49 49 47 46 43 43 44 44 40 33 37 41 45 45 41 39 37 37 35 35 31 32 28 29 24 20 21 21 20 20 19 19 16 15 14 20 22
32 33 33 33 34 34 36 40 45 49 49 48 47 45 42 47 52 37 32 35 40 46 45 43 41 39 39 36 34 35 32 28 28 26 24 23 23 22 23 22 20 16 19 20 22
32 32 33 33 33 33 34 36 40 46 48 48 47 47 45 51 41 48 43 38 38 43 47 46 43 42 38 40 37 36 33 34 31 30 29 27 26 25 24 24 25 23 20 22 23
32 32 32 32 32 32 33 33 35 40 46 48 46 47 51 55 51 46 45 49 42 41 43 46 46 42 43 40 40 37 37 33 36 32 31 29 31 29 25 23 25 27 23 23 24
32 32 32 32 32 32 32 32 33 36 41 47 47 45 51 52 50 53 48 48 49 45 43 41 45 45 43 42 37 39 38 40 37 35 33 32 33 30 28 28 27 26 26 25 26
31 31 31 32 31 31 30 31 32 33 37 42 47 47 46 49 50 51 54 49 49 49 44 42 42 46 43 43 40 41 42 43 38 37 34 36 35 32 27 28 30 29 29 28 26
31 31 30 30 30 30 31 31 31 31 32 36 44 45 49 44 45 47 47 54 51 49 49 47 43 45 46 44 49 44 45 41 39 38 37 37 39 33 28 31 32 29 30 31 30
30 30 29 29 29 29 29 28 25 24 26 33 37 48 50 43 38 48 46 47 52 51 57 56 49 50 55 55 49 45 43 42 40 37 36 40 40 36 35 31 30 32 31 31 31
30 29 29 28 28 28 26 23 22 24 29 32 41 49 54 48 43 42 43 42 48 54 56 52 55 59 55 50 51 48 47 45 39 35 39 37 40 37 37 37 35 32 33 33 31
29 28 28 27 27 24 22 23 23 25 27 32 39 45 50 53 51 53 38 41 41 54 57 60 63 60 53 55 52 50 49 46 42 35 36 35 40 41 40 40 39 38 36 36 35
28 27 27 26 23 20 21 20 21 21 23 27 22 27 43 47 48 51 48 38 38 48 57 52 58 56 56 57 51 52 51 45 44 39 37 34 38 40 42 43 42 41 41 41 39
27 27 26 24 23 21 21 21 20 17 17 11 12 16 25 43 36 38 52 44 41 37 42 47 54 58 53 60 57 57 44 44 44 41 42 39 39 43 40 44 47 45 44 43 42
27 26 25 23 21 22 20 19 16 15 17 12 13 15 20 34 44 33 35 46 37 44 45 40 48 49 57 50 50 50 42 40 40 40 40 48 44 47 41 46 43 42 43 42 42
27 26 25 24 21 20 18 14 14 16 13 11 9 6 14 25 37 41 40 41 36 31 31 36 46 43 50 53 49 44 37 31 32 32 37 47 38 44 24 40 48 43 38 38 37
27 27 24 22 21 18 15 14 17 15 14 18 23 22 22 11 19 32 39 40 44 36 24 28 32 44 45 49 56 52 49 33 33 38 44 40 30 50 46 38 19 20 28 29 31
27 23 22 20 18 15 13 15 16 19 12 14 16 17 16 12 13 10 24 37 34 41 36 29 25 30 46 47 49 55 49 52 35 35 39 40 49 54 40 39 40 35 34 36 37
25 23 21 15 14 12 14 19 19 20 18 16 18 14 16 12 11 12 11 17 24 23 22 30 33 31 32 41 44 40 51 45 39 29 28 35 44 42 37 41 39 37 34 32 30
22 18 17 14 11 12 14 15 20 22 23 21 20 20 21 23 18 16 12 14 20 24 26 23 24 24 32 31 35 33 36 36 38 34 35 38 42 38 36 25 25 28 27 26 26
19 16 13 14 15 13 15 16 15 23 20 19 20 20 20 19 21 20 18 17 18 20 21 25 23 26 26 31 33 35 31 34 34 31 35 32 31 22 20 25 23 21 20 20 18
18 19 19 15 14 16 19 20 17 18 20 19 22 20 19 18 18 15 13 11 12 15 17 19 23 25 27 29 28 25 26 24 28 29 39 33 31 27 28 22 22 20 17 18 17
17 15 14 14 17 19 19 18 17 15 18 19 22 21 20 18 18 19 18 14 16 17 18 18 21 28 24 19 20 22 21 21 22 26 26 36 37 22 21 23 25 21 21 20 18
16 16 17 15 16 19 20 20 22 21 20 19 15 22 22 21 19 19 19 14 14 13 17 20 20 25 27 28 28 30 26 22 22 26 27 37 39 35 19 14 20 19 18 18 17
18 17 18 20 21 22 22 22 23 24 17 19 20 21 19 22 21 20 20 20 19 19 15 17 19 19 26 28 32 33 33 32 31 29 34 37 40 37 35 30 27 25 21 22 22
20 21 20 19 21 21 22 24 24 23 22 21 21 20 18 19 21 21 20 22 24 26 27 22 20 20 25 26 26 32 37 35 37 37 37 39 36 35 35 34 33 32 31 29 27
Wind_Direction
293 288 280 271 264 260 258 257 256 254 251 250 249 247 245 244 243 241 237 233 235 233 232 231 227 226 227 229 228 233 240 239 242 236 241 226 229 225 234 236 229 223 235 225 209
296 291 286 280 270 262 258 256 255 253 252 250 249 247 246 244 243 241 237 235 234 232 229 227 226 226 227 228 227 229 232 234 248 240 237 231 232 232 233 230 228 224 226 223 213
298 295 291 285 278 269 261 255 253 252 251 250 248 247 245 242 244 243 238 233 232 229 229 229 230 229 230 229 225 229 234 234 243 241 241 239 235 240 241 239 228 225 222 220 220
300 297 294 289 283 276 267 258 253 251 249 248 247 246 247 236 235 232 232 230 229 227 228 229 230 230 231 231 229 233 235 237 245 241 241 239 239 239 240 241 245 226 221 218 222
303 299 296 291 287 281 273 264 255 250 249 247 246 245 242 235 232 231 232 230 226 225 226 227 229 229 231 232 234 234 236 239 239 242 239 242 244 245 246 239 241 230 231 230 225
307 302 297 293 288 285 279 271 261 252 248 245 245 243 239 239 230 234 234 230 228 225 226 227 229 229 234 233 233 235 238 241 241 239 240 241 244 243 245 243 240 238 236 232 226
306 302 300 295 289 286 282 276 268 258 249 245 244 241 238 236 234 237 235 229 227 227 227 227 227 229 229 233 235 239 240 240 239 236 239 241 242 241 244 244 241 238 236 234 229
307 302 299 295 291 288 284 279 273 265 253 245 243 242 239 236 236 235 234 231 228 229 228 228 226 230 231 232 237 235 237 240 236 235 238 238 244 239 242 242 241 239 237 235 232
309 304 300 296 291 288 286 281 277 270 259 248 241 238 240 236 235 234 232 232 227 226 227 226 226 227 227 228 232 231 234 235 238 233 234 233 244 243 242 238 240 240 237 236 235
309 306 302 299 294 290 285 283 281 272 263 249 240 237 234 233 233 232 231 229 229 226 224 224 224 223 223 222 228 227 233 238 237 234 236 237 241 242 241 241 239 240 237 237 236
310 307 305 302 297 293 289 286 280 268 257 250 242 236 237 235 237 230 231 230 227 227 221 221 221 220 222 226 233 235 235 235 238 238 234 237 244 239 240 241 238 238 238 237 238
310 308 307 305 301 295 288 279 279 277 271 261 251 245 237 234 232 231 228 227 222 223 223 219 222 225 227 227 231 233 236 238 239 236 238 240 243 242 241 239 236 237 241 238 238
311 309 308 306 303 296 286 280 279 283 273 272 261 245 234 229 229 229 226 224 225 222 222 222 224 226 226 229 229 231 233 235 238 232 241 240 246 244 243 242 240 241 241 239 241
312 310 309 308 301 299 290 283 285 283 279 281 261 247 228 224 230 227 223 224 226 223 222 228 228 224 226 229 228 233 231 236 237 235 235 228 247 244 241 242 241 241 242 243 243
312 310 308 306 300 298 292 286 285 276 277 286 272 246 233 219 224 227 222 224 227 228 218 223 224 223 223 226 227 234 234 234 236 237 240 236 243 246 245 244 241 242 242 243 243
313 310 308 304 298 297 293 283 273 262 261 277 279 257 232 223 227 228 222 220 227 231 235 234 227 228 229 228 227 229 230 235 233 234 237 239 241 252 245 246 246 245 244 244 246
313 309 305 299 295 296 293 276 261 252 283 278 287 274 264 237 230 230 227 218 219 223 227 229 231 231 228 231 229 224 219 225 229 229 233 237 235 242 258 242 244 243 243 245 247
313 310 304 298 294 290 284 266 254 259 256 287 284 280 274 256 232 233 227 227 224 225 231 227 227 223 223 223 220 223 218 221 222 227 236 234 231 240 238 248 262 236 239 242 244
314 311 305 299 291 282 270 260 256 256 275 297 294 283 262 227 241 243 240 228 224 223 230 233 231 228 225 225 221 222 225 225 239 239 238 236 236 251 247 245 246 246 244 247 247
313 310 306 303 291 270 267 260 257 250 265 286 288 274 273 273 281 261 232 227 228 227 243 232 236 226 224 226 228 230 222 223 227 227 230 230 232 243 239 246 245 247 248 246 245
311 308 305 307 290 275 269 272 261 252 259 269 269 274 276 271 276 270 232 242 228 236 237 231 227 222 212 217 213 217 221 224 223 230 230 240 239 241 236 232 230 231 237 240 237
306 301 303 303 290 281 274 275 272 258 254 251 267 272 277 271 265 258 252 240 231 228 233 224 229 225 221 217 217 217 220 215 221 221 231 236 240 212 236 230 226 236 233 226 230
301 296 295 293 287 281 277 276 270 258 253 259 261 264 262 270 262 243 244 235 231 226 233 224 221 231 223 219 214 221 220 230 231 227 221 221 227 229 231 229 225 226 229 225 229
300 300 296 288 287 287 285 280 277 265 262 263 265 252 258 259 258 239 258 239 256 244 221 222 225 222 228 226 228 223 228 221 222 223 224 222 226 224 224 220 228 232 234 230 229
294 292 290 292 288 289 286 280 275 274 266 262 264 247 250 259 259 256 255 248 251 236 229 221 227 226 232 234 234 234 233 227 224 228 227 225 227 224 211 246 234 220 218 214 217
293 293 291 289 288 287 284 277 271 268 268 259 261 262 255 253 253 260 265 258 254 251 230 221 230 237 236 234 237 241 239 234 233 230 235 238 238 236 239 246 242 224 233 244 235
290 287 286 289 289 287 283 280 273 259 265 254 258 264 262 264 260 258 260 262 256 249 246 244 238 241 238 241 242 243 236 237 238 236 236 238 238 238 242 242 244 247 248 249 246